Flag Weather past 2 weeks in Lemgo, North Rhine-Westphalia, Germany

Now
38 °F

Clear.


Feels Like: 35 °F
Forecast: 31 / 37 °F
Wind: 5 mph from East

Location: Bad Lippspringe

Current Time: Nov 28, 2014 at 5:53:49 AM

Latest Report: Nov 28, 2014 at 5:00 AM


Visibility: N/A

Pressure: 29.86 "Hg

Humidity: 83%

Dew point: 34 °F

Location of LemgoLocation

Historic Weather in Lemgo — Graph

°F

Lemgo temperature yesterday

Maximum temperature yesterday: 41 °F (at 3:00 PM)
Minimum temperature yesterday: 37 °F (at 8:00 AM)
Average temperature yesterday: 39 °F

Past Weeks' High & Low Weather Summary

 TemperatureHumidityPressure
High56 °F (Nov 13, 3:00 PM)100% (Nov 25, 6:00 AM)30.37 "Hg (Nov 25, 6:00 AM)
Low32 °F (Nov 25, 6:00 AM)65% (Nov 25, 2:00 PM)29.50 "Hg (Nov 16, 6:00 AM)
Average45 °F85%29.99 "Hg
* Reported Nov 13 4:00 AM — Nov 28 4:00 AM, Lemgo, Weather by CustomWeather, © 2014

Note: Actual official high and low records may vary slightly from our data, if they occured in-between our weather recording intervals... More about our weather records

Advertising

Lemgo weather history for previous 24 hours

 ConditionsComfort  
Time TempWeatherWind HumidityBarometerVisibility
4:00 AM
Nov 28
38 °FClear.5 mph83%29.85 "HgN/A
3:00 AM39 °FClear.3 mph82%29.85 "HgN/A
2:00 AM39 °FClear.6 mph81%29.83 "HgN/A
1:00 AM39 °FOvercast.5 mph82%29.84 "HgN/A
12:00 AM39 °FOvercast.3 mph82%29.84 "HgN/A
11:00 PM
Nov 27
40 °FDrizzle. Overcast.6 mph82%29.84 "HgN/A
10:00 PM40 °FDrizzle. Overcast.2 mph83%29.85 "HgN/A
9:00 PM40 °FLight rain. Overcast.2 mph82%29.84 "HgN/A
8:00 PM40 °FOvercast.3 mph79%29.83 "HgN/A
7:00 PM40 °FOvercast.3 mph79%29.84 "HgN/A
6:00 PM40 °FOvercast.5 mph78%29.83 "HgN/A
5:00 PM40 °FPassing clouds.3 mph80%29.83 "HgN/A
4:00 PM41 °FPartly sunny.3 mph77%29.82 "HgN/A
3:00 PM41 °FOvercast.3 mph77%29.83 "HgN/A
2:00 PM41 °FOvercast.3 mph76%29.83 "HgN/A
1:00 PM41 °FOvercast.3 mph77%29.85 "HgN/A
12:00 PM40 °FOvercast.3 mph76%29.85 "HgN/A
11:00 AM39 °FOvercast.5 mph77%29.87 "HgN/A
10:00 AM38 °FOvercast.6 mph79%29.88 "HgN/A
9:00 AM38 °FOvercast.6 mph81%29.88 "HgN/A
8:00 AM37 °FOvercast.6 mph82%29.87 "HgN/A
7:00 AM38 °FOvercast.8 mph80%29.87 "HgN/A
6:00 AM38 °FOvercast.7 mph80%29.88 "HgN/A
5:00 AM38 °FOvercast.7 mph79%29.88 "HgN/A
Weather by CustomWeather, © 2014

See weather overviewHow to use our weather pages